timestamp,surface_pressure_avg,surface_temp_avg,battery_voltage,lat,long
2018-11-25 00:00:00+00:00,388.2345,5.79,12.97,47.84626,-54.09684
2018-11-25 00:10:00+00:00,393.0679,5.8,12.97,47.84626,-54.09684
2018-11-25 00:20:00+00:00,390.2513,5.7,13.05,47.84626,-54.09684
2018-11-25 00:30:00+00:00,388.6396,5.7,13.05,47.84626,-54.09684
2018-11-25 00:40:00+00:00,391.1329,5.74,13.05,47.84626,-54.09684
2018-11-25 00:50:00+00:00,389.8879,5.78,13.05,47.84626,-54.09684
2018-11-25 01:00:00+00:00,384.5913,5.76,12.97,47.84626,-54.09684
2018-11-25 01:10:00+00:00,380.5346,5.74,12.89,47.84626,-54.09684
2018-11-25 01:20:00+00:00,380.7463,5.7,12.97,47.84626,-54.09684
2018-11-25 01:30:00+00:00,374.1579,5.7,12.97,47.84626,-54.09684
2018-11-25 01:40:00+00:00,366.8196,5.73,13.05,47.84626,-54.09684
2018-11-25 01:50:00+00:00,366.5013,5.7,13.05,47.84626,-54.09684
2018-11-25 02:00:00+00:00,369.0413,5.7,12.97,47.84626,-54.09684
2018-11-25 02:10:00+00:00,361.4879,5.7,12.89,47.84626,-54.09684
2018-11-25 02:20:00+00:00,353.483,5.7,12.97,47.84626,-54.09684
2018-11-25 02:30:00+00:00,352.5029,5.7,12.97,47.84626,-54.09684
2018-11-25 02:40:00+00:00,350.7663,5.7,12.97,47.84626,-54.09684
2018-11-25 02:50:00+00:00,342.348,5.7,12.97,47.84626,-54.09684
2018-11-25 03:00:00+00:00,333.1664,5.7,12.97,47.84626,-54.09684
2018-11-25 03:10:00+00:00,326.6763,5.6,12.89,47.84626,-54.09684
2018-11-25 03:20:00+00:00,315.418,5.5,12.97,47.84626,-54.09684
2018-11-25 03:30:00+00:00,304.893,5.3,12.97,47.84626,-54.09684
2018-11-25 03:40:00+00:00,299.3214,5.2,12.97,47.84626,-54.09684
2018-11-25 03:50:00+00:00,294.0081,5.2,12.97,47.84626,-54.09684
2018-11-25 04:00:00+00:00,281.9581,5.22,12.89,47.84626,-54.09684
2018-11-25 04:10:00+00:00,272.3497,5.2,12.81,47.84626,-54.09684
2018-11-25 04:20:00+00:00,268.6814,5.2,12.97,47.84626,-54.09684
2018-11-25 04:30:00+00:00,260.963,5.2,12.97,47.84626,-54.09684
2018-11-25 04:40:00+00:00,246.4915,5.2,12.97,47.84626,-54.09684
2018-11-25 04:50:00+00:00,236.9014,5.2,12.97,47.84626,-54.09684
2018-11-25 05:00:00+00:00,233.9464,5.3,12.89,47.84626,-54.09684
2018-11-25 05:10:00+00:00,229.3631,5.37,12.81,47.84626,-54.09684
2018-11-25 05:20:00+00:00,223.9331,5.4,12.97,47.84626,-54.09684
2018-11-25 05:30:00+00:00,222.7098,5.4,12.97,47.84626,-54.09684
2018-11-25 05:40:00+00:00,224.7448,5.3,12.97,47.84626,-54.09684
2018-11-25 05:50:00+00:00,223.4381,5.3,12.97,47.84626,-54.09684
2018-11-25 06:00:00+00:00,221.1814,5.2,12.89,47.84626,-54.09684
2018-11-25 06:10:00+00:00,221.2331,5.1,12.81,47.84626,-54.09684
2018-11-25 06:20:00+00:00,222.1714,5.0,12.89,47.84626,-54.09684
2018-11-25 06:30:00+00:00,220.1931,5.0,12.97,47.84626,-54.09684
2018-11-25 06:40:00+00:00,220.0664,4.92,12.97,47.84626,-54.09684
2018-11-25 06:50:00+00:00,221.9531,4.97,12.97,47.84626,-54.09684
2018-11-25 07:00:00+00:00,225.9331,4.9,12.89,47.84626,-54.09684
2018-11-25 07:10:00+00:00,229.1764,4.9,12.81,47.84626,-54.09684
2018-11-25 07:20:00+00:00,232.2564,5.05,12.89,47.84626,-54.09684
2018-11-25 07:30:00+00:00,235.5347,5.28,12.97,47.84626,-54.09684
2018-11-25 07:40:00+00:00,244.7464,5.3,12.97,47.84626,-54.09684
2018-11-25 07:50:00+00:00,250.6964,5.08,12.97,47.84626,-54.09684
2018-11-25 08:00:00+00:00,251.0381,5.28,12.89,47.84626,-54.09684
2018-11-25 08:10:00+00:00,251.8198,5.32,12.81,47.84626,-54.09684
2018-11-25 08:20:00+00:00,257.2897,5.33,12.89,47.84626,-54.09684
2018-11-25 08:30:00+00:00,262.3414,5.3,12.89,47.84626,-54.09684
2018-11-25 08:40:00+00:00,264.9197,5.3,12.97,47.84626,-54.09684
2018-11-25 08:50:00+00:00,269.9031,5.32,12.97,47.84626,-54.09684
2018-11-25 09:00:00+00:00,279.9347,4.93,12.89,47.84626,-54.09684
2018-11-25 09:10:00+00:00,288.8147,5.3,12.81,47.84626,-54.09684
2018-11-25 09:20:00+00:00,294.0831,5.19,12.89,47.84626,-54.09684
2018-11-25 09:30:00+00:00,297.5731,4.9,12.89,47.84626,-54.09684
2018-11-25 09:40:00+00:00,303.3396,4.9,12.97,47.84626,-54.09684
2018-11-25 09:50:00+00:00,311.2513,4.95,12.97,47.84626,-54.09684
2018-11-25 10:00:00+00:00,314.948,5.2,12.89,47.84626,-54.09684
2018-11-25 10:10:00+00:00,323.0313,5.2,12.81,47.84626,-54.09684
2018-11-25 10:20:00+00:00,335.9196,5.17,12.89,47.84626,-54.09684
2018-11-25 10:30:00+00:00,345.6929,5.1,12.89,47.84626,-54.09684
2018-11-25 10:40:00+00:00,346.9563,5.1,12.97,47.84626,-54.09684
2018-11-25 10:50:00+00:00,345.4363,5.11,12.97,47.84626,-54.09684
2018-11-25 11:00:00+00:00,353.1646,5.14,12.89,47.84626,-54.09684
2018-11-25 11:10:00+00:00,359.5563,5.14,12.97,47.84626,-54.09684
2018-11-25 11:20:00+00:00,371.4479,5.1,13.29,47.84626,-54.09684
2018-11-25 11:30:00+00:00,382.6913,5.1,13.92,47.84626,-54.09684
2018-11-25 11:40:00+00:00,388.1364,4.97,15.27,47.84626,-54.09684
2018-11-25 11:50:00+00:00,394.9061,4.8,16.55,47.84626,-54.09684
2018-11-25 12:00:00+00:00,403.418,4.7,16.39,47.84626,-54.09684
2018-11-25 12:10:00+00:00,409.6429,4.71,16.63,47.84626,-54.09684
2018-11-25 12:20:00+00:00,415.3295,4.7,16.87,47.84626,-54.09684
2018-11-25 12:30:00+00:00,415.2813,4.7,16.71,47.84626,-54.09684
2018-11-25 12:40:00+00:00,415.7861,4.7,16.63,47.84626,-54.09684
2018-11-25 12:50:00+00:00,412.3096,4.79,16.31,47.84626,-54.09684
2018-11-25 13:00:00+00:00,409.2729,5.01,15.27,47.84626,-54.09684
2018-11-25 13:10:00+00:00,405.7712,5.08,15.27,47.84626,-54.09684
2018-11-25 13:20:00+00:00,407.2562,5.0,15.44,47.84626,-54.09684
2018-11-25 13:30:00+00:00,412.3229,5.0,15.35,47.84626,-54.09684
2018-11-25 13:40:00+00:00,409.8195,5.0,15.35,47.84626,-54.09684
2018-11-25 13:50:00+00:00,404.0128,5.0,15.27,47.84626,-54.09684
2018-11-25 14:00:00+00:00,401.3762,5.0,15.04,47.84626,-54.09684
2018-11-25 14:10:00+00:00,399.4246,4.99,15.04,47.84626,-54.09684
2018-11-25 14:20:00+00:00,393.9196,4.97,15.2,47.84626,-54.09684
2018-11-25 14:30:00+00:00,387.908,4.97,15.11,47.84626,-54.09684
2018-11-25 14:40:00+00:00,384.6512,4.94,15.11,47.84626,-54.09684
2018-11-25 14:50:00+00:00,379.5996,4.9,15.11,47.84626,-54.09684
2018-11-25 15:00:00+00:00,369.2763,4.9,14.96,47.84626,-54.09684
2018-11-25 15:10:00+00:00,356.8146,4.9,14.96,47.84626,-54.09684
2018-11-25 15:20:00+00:00,352.2813,4.93,15.04,47.84626,-54.09684
2018-11-25 15:30:00+00:00,346.1479,4.93,14.96,47.84626,-54.09684
2018-11-25 15:40:00+00:00,328.5462,4.9,14.96,47.84626,-54.09684
2018-11-25 15:50:00+00:00,315.013,4.9,14.96,47.84626,-54.09684
2018-11-25 16:00:00+00:00,313.0364,4.94,14.88,47.84626,-54.09684
2018-11-25 16:10:00+00:00,307.463,4.91,14.88,47.84626,-54.09684
2018-11-25 16:20:00+00:00,289.2281,4.91,14.96,47.84626,-54.09684
2018-11-25 16:30:00+00:00,280.5281,4.9,14.88,47.84626,-54.09684
2018-11-25 16:40:00+00:00,278.8763,4.9,14.88,47.84626,-54.09684
2018-11-25 16:50:00+00:00,267.8981,4.9,14.88,47.84626,-54.09684
2018-11-25 17:00:00+00:00,252.4731,4.92,14.72,47.84626,-54.09684
2018-11-25 17:10:00+00:00,244.3582,4.9,14.72,47.84626,-54.09684
2018-11-25 17:20:00+00:00,240.1847,4.9,14.8,47.84626,-54.09684
2018-11-25 17:30:00+00:00,228.2231,4.9,14.8,47.84626,-54.09684
2018-11-25 17:40:00+00:00,217.8715,4.9,14.72,47.84626,-54.09684
2018-11-25 17:50:00+00:00,215.8031,4.92,14.72,47.84626,-54.09684
2018-11-25 18:00:00+00:00,212.5915,4.95,14.64,47.84626,-54.09684
2018-11-25 18:10:00+00:00,205.6898,4.94,14.56,47.84626,-54.09684
2018-11-25 18:20:00+00:00,198.6531,4.94,14.64,47.84626,-54.09684
2018-11-25 18:30:00+00:00,195.8165,4.92,14.64,47.84626,-54.09684
2018-11-25 18:40:00+00:00,192.5398,4.92,14.64,47.84626,-54.09684
2018-11-25 18:50:00+00:00,189.1731,4.9,14.56,47.84626,-54.09684
2018-11-25 19:00:00+00:00,189.2848,4.9,14.48,47.84626,-54.09684
2018-11-25 19:10:00+00:00,185.3848,4.97,14.16,47.84626,-54.09684
2018-11-25 19:20:00+00:00,183.7115,5.0,14.08,47.84626,-54.09684
2018-11-25 19:30:00+00:00,188.0465,5.0,14.0,47.84626,-54.09684
2018-11-25 19:40:00+00:00,188.7148,5.0,13.92,47.84626,-54.09684
2018-11-25 19:50:00+00:00,193.0131,5.0,13.84,47.84626,-54.09684
2018-11-25 20:00:00+00:00,201.5898,5.0,13.68,47.84626,-54.09684
2018-11-25 20:10:00+00:00,208.9748,5.0,13.53,47.84626,-54.09684
2018-11-25 20:20:00+00:00,213.8347,5.0,13.53,47.84626,-54.09684
2018-11-25 20:30:00+00:00,222.6298,5.0,13.44,47.84626,-54.09684
2018-11-25 20:40:00+00:00,234.0064,5.0,13.44,47.84626,-54.09684
2018-11-25 20:50:00+00:00,238.9831,4.99,13.37,47.84626,-54.09684
2018-11-25 21:00:00+00:00,239.6748,4.94,13.29,47.84626,-54.09684
2018-11-25 21:10:00+00:00,244.2481,4.98,13.21,47.84626,-54.09684
2018-11-25 21:20:00+00:00,251.9081,4.99,13.21,47.84626,-54.09684
2018-11-25 21:30:00+00:00,260.6731,5.0,13.21,47.84626,-54.09684
2018-11-25 21:40:00+00:00,268.7364,5.0,13.21,47.84626,-54.09684
2018-11-25 21:50:00+00:00,276.993,4.98,13.21,47.84626,-54.09684
2018-11-25 22:00:00+00:00,284.048,5.0,13.13,47.84626,-54.09684
2018-11-25 22:10:00+00:00,289.188,5.0,13.05,47.84626,-54.09684
2018-11-25 22:20:00+00:00,292.903,4.8,13.05,47.84626,-54.09684
2018-11-25 22:30:00+00:00,297.678,4.8,13.05,47.84626,-54.09684
2018-11-25 22:40:00+00:00,303.9664,4.76,13.13,47.84626,-54.09684
2018-11-25 22:50:00+00:00,308.1964,4.8,13.13,47.84626,-54.09684
2018-11-25 23:00:00+00:00,313.5013,4.8,13.05,47.84626,-54.09684
2018-11-25 23:10:00+00:00,320.6164,4.8,12.97,47.84626,-54.09684
2018-11-25 23:20:00+00:00,330.8229,4.8,13.05,47.84626,-54.09684
2018-11-25 23:30:00+00:00,334.5046,4.75,13.05,47.84626,-54.09684
2018-11-25 23:40:00+00:00,341.2014,4.7,13.05,47.84626,-54.09684
2018-11-25 23:50:00+00:00,352.9913,4.7,13.05,47.84626,-54.09684
